This demonstration page uses our WeatherBlox Daily Observations layout. Learn more.

Left ArrowRight Arrow

34.74481, -87.66753

Hourly Observations for February 14, 2020

Temp ( °F °C ) Dew Point ( °F °C ) Humidity (%) Winds ( mph kmh ) Pressure ( in mb ) Visibility ( mi km ) Precip ( " mm )
12:53 am 00:53 Clear 33 0.6 26 -3.3 75 75 N 8 13 30.37 1028 10 16 0.00 0.00
1:53 am 01:53 Clear 31 -0.6 19 -7.2 61 61 N 9 15 30.38 1029 10 16 0.00 0.00
2:53 am 02:53 Clear 30 -1.1 18 -7.8 61 61 N 8 13 30.40 1029 10 16 0.00 0.00
3:53 am 03:53 Clear 29 -1.7 16 -8.9 58 58 N 8 13 30.41 1030 10 16 0.00 0.00
4:53 am 04:53 Clear 28 -2.2 15 -9.4 58 58 N 9 15 30.43 1031 10 16 0.00 0.00
5:53 am 05:53 Clear 27 -2.8 17 -8.3 66 66 N 8 13 30.45 1031 10 16 0.00 0.00
6:53 am 06:53 Sunny 26 -3.3 16 -8.9 66 66 N 9 15 30.48 1032 10 16 0.00 0.00
7:53 am 07:53 Sunny 27 -2.8 17 -8.3 66 66 N 9 15 30.50 1033 10 16 0.00 0.00
8:53 am 08:53 Sunny 28 -2.2 18 -7.8 66 66 NNE 10 17 30.52 1034 10 16 0.00 0.00
9:53 am 09:53 Sunny 31 -0.6 19 -7.2 61 61 N 7 11 30.54 1034 10 16 0.00 0.00
10:53 am 10:53 Sunny 34 1.1 18 -7.8 52 52 VRB 7 11 30.54 1034 10 16 0.00 0.00
11:53 am 11:53 Sunny 37 2.8 20 -6.7 50 50 NNE 7 11 30.53 1034 10 16 0.00 0.00
12:53 pm 12:53 Sunny 39 3.9 18 -7.8 43 43 N 8 13 30.50 1033 10 16 0.00 0.00
1:53 pm 13:53 Sunny 41 5 18 -7.8 39 39 NE 8 13 30.49 1033 10 16 0.00 0.00
2:53 pm 14:53 Sunny 43 6.1 17 -8.3 35 35 NNW 7 11 30.48 1032 10 16 0.00 0.00
3:53 pm 15:53 Sunny 42 5.6 18 -7.8 38 38 NNE 7 11 30.47 1032 10 16 0.00 0.00
4:53 pm 16:53 Sunny 41 5 17 -8.3 38 38 ENE 9 15 30.47 1032 10 16 0.00 0.00
5:53 pm 17:53 Clear 37 2.8 19 -7.2 48 48 ENE 6 9 30.48 1032 10 16 0.00 0.00
6:53 pm 18:53 Clear 36 2.2 19 -7.2 50 50 ENE 7 11 30.49 1033 10 16 0.00 0.00
7:53 pm 19:53 Clear 35 1.7 18 -7.8 50 50 ENE 8 13 30.49 1033 10 16 0.00 0.00
8:53 pm 20:53 Clear 33 0.6 18 -7.8 54 54 ENE 7 11 30.49 1033 10 16 0.00 0.00
9:53 pm 21:53 Clear 32 0 18 -7.8 56 56 NE 7 11 30.49 1032 10 16 0.00 0.00
10:53 pm 22:53 Clear 31 -0.6 18 -7.8 59 59 ENE 7 11 30.47 1032 10 16 0.00 0.00
11:53 pm 23:53 Clear 30 -1.1 18 -7.8 61 61 Calm 30.48 1032 10 16 0.00 0.00

Powered by AerisWeather